User: anonymous   Login
Location: Brno
(49.2000°N, 16.6330°E)
Time: 19:01:32
(UTC+02:00)
Language:

Cosmos 1603 - Orbit

View from above orbital plane
View from above orbital plane
View from above satellite
View from above satellite

Ground track
Ground track

The orbit data is extracted from the following two-line orbital elements,

1 15333U 84106A   15185.23956391  .00000283  00000-0  17341-3 0  9994
2 15333 071.0256 147.2925 0020922 217.9341 237.0530 14.14003608587344
Epoch (UTC): 04 July 2015 05:44:58
Eccentricity: 0.0020922
inclination: 71.0256°
perigee height: 830 km
apogee height: 861 km
right ascension of ascending node: 147.2925°
argument of perigee: 217.9341°
revolutions per day: 14.14003608
mean anomaly at epoch: 237.0530°
orbit number at epoch: 58734

The dashed part of the orbit path shows where the satellite is in the earth's shadow,  

DLR